Regional Weather Roundup
Issued by NWS

Home | Current Version | Previous Version | Graphics & Text | Print | Product List | Glossary On
Versions: 1 2 3 4 5 6 7 8 9 10 11 12 13 14 15 16 17 18 19 20 21 22 23 24 25 26 27 28 29 30 31 32 33 34 35 36 37 38 39 40 41 42 43 44 45 46 47 48 49 50
000
ASUS45 KSLC 010210
RWRUT

UTAH REGIONAL WEATHER ROUNDUP
NATIONAL WEATHER SERVICE SALT LAKE CITY UT
800 PM MDT FRI SEP 30 2016

UTZ001>011-023>025-010300-

NORTHERN UTAH

CITY           SKY/WX    TMP DP  RH WIND       PRES   REMARKS
BRIGHAM CITY     N/A     67  51  55 CALM      30.07F
HILL AFB       PTCLDY    67  48  51 SE6       30.10F
LOGAN          CLEAR     67  51  56 SE3       30.08F
OGDEN          CLEAR     69  48  47 SE6       30.07F
PROVO AIRPORT  PTCLDY    67  52  58 CALM      30.10S
SALT LAKE CITY MOCLDY    70  48  45 S6        30.06F
VERNAL         CLOUDY    62  51  67 W3        30.18S
WENDOVER       CLEAR    N/A N/A N/A MISG        N/A
HEBER CITY     PTCLDY    55  45  67 W3        30.16S
WEST JORDAN    PTCLDY    69  47  45 SW3       30.10S

$$

UTZ012>022-026-027-010300-

SOUTHERN/CENTRAL UTAH

CITY           SKY/WX    TMP DP  RH WIND       PRES   REMARKS
BLANDING       PTCLDY    58  51  77 NW3       30.31R
BRYCE CANYON   PTCLDY    53  44  71 S6        30.32S
CEDAR CITY     PTCLDY    63  43  48 SE7G18    30.18S
DELTA          CLEAR     68  39  34 SE7       30.09S
MILFORD        PTCLDY    69  44  40 S8        30.12S
MOAB/CYNLANDS  CLEAR     69  53  56 N8        30.13S
PRICE          PTCLDY    60  51  72 N5        30.22S
ST GEORGE      PTCLDY    79  48  34 SE3       30.03F

$$

REGIONAL REPORTS     COLORADO/ARIZONA

CITY           SKY/WX    TMP DP  RH WIND       PRES   REMARKS
CRAIG, CO      CLOUDY    55  45  68 VRB3      30.24S
GRAND JUNCTION CLEAR     64  53  67 E3        30.17S
RIFLE          MOCLDY    64  47  53 CALM      30.22R
MONTROSE       CLEAR     58  48  69 S9        30.25S
CORTEZ         CLEAR     55  48  77 SE5       30.23S
PAGE, AZ       CLEAR     72  51  47 CALM      30.13S
GRAND CANYON   PTCLDY    55  49  80 CALM      30.29S
KINGMAN        CLEAR     70  32  24 SE9       30.06F
FLAGSTAFF      MOCLDY    54  50  86 CALM      30.31S

$$

REGIONAL REPORTS    NEVADA/IDAHO/WYOMING

CITY           SKY/WX    TMP DP  RH WIND       PRES   REMARKS
LAS VEGAS, NV  PTCLDY    89  42  19 SE6       29.93S
ELY            CLEAR     60  33  36 S7        30.15S
ELKO           MOCLDY    65  45  48 NE8       30.04F
POCATELLO, ID  CLEAR     63  45  51 S9        30.06F
BURLEY         CLEAR     68  49  50 SE9       29.98F
EVANSTON, WY   CLEAR     57  41  55 S7        30.25F
ROCK SPRINGS   CLOUDY    58  43  57 S8        30.24R

$$



USA.gov is the U.S. government's official web portal to all federal, state and local government web resources and services.